Regional Weather Roundup
Issued by NWS Goodland, KS

Home | Current Version | Previous Version | Text Only | Print | Product List | Glossary On
Versions: 1 2 3 4 5 6 7 8 9 10 11 12 13 14 15 16 17 18 19 20 21 22 23 24 25 26 27 28 29 30 31 32 33 34 35 36 37 38 39 40 41 42 43 44 45 46 47 48 49 50
000
ASUS43 KGLD 211208
RWRGLD

GOODLAND FORECAST AREA HOURLY WEATHER ROUNDUP
NATIONAL WEATHER SERVICE GOODLAND KS
500 AM MST SUN DEC 21 2014

...OFFICIAL OBSERVATIONS...

CITY           SKY/WX    TMP DP  RH WIND       PRES   REMARKS
GOODLAND KS    PTCLDY    30  26  85 S6        29.80F
HILL CITY KS   MOCLDY    32  29  88 S8        29.86F FOG
IMPERIAL NEB   PTCLDY    28  24  85 W7        29.79F
MCCOOK NEB     CLOUDY    29  26  89 CALM      29.79F
AKRON CO       PTCLDY    25  18  74 W12       29.77F WCI  14
BURLINGTON CO  CLEAR     28  23  81 W10       29.80F WCI  19
LIMON CO       CLEAR     19  16  88 NW5       29.80F
$$

...UNOFFICIAL OBSERVATIONS...

CITY           SKY/WX    TMP DP  RH WIND       PRES   REMARKS
COLBY KS       CLOUDY    32  32 100 S5        29.80F
GOVE KS          N/A     29  32 100 MISG        N/A
NORTON KS      PTCLDY    34  28  80 SW6       29.82F
TRIBUNE KS     CLEAR     25  25 100 W3        29.84F
KIT CARSON CO    N/A     25  21  85 MISG        N/A
YUMA CO          N/A     22  17  80 W6          N/A
$$


USA.gov is the U.S. government's official web portal to all federal, state and local government web resources and services.